Flag for Canada Weather past 2 weeks in Quispamsis, New Brunswick, Canada

Now
34 °F

Clear.


Feels Like: 34 °F
Forecast: 47 / 63 °F
Wind: No wind

Location: Saint John

Current Time: May 7, 2015 at 5:49:24 AM

Latest Report: May 7, 2015 at 5:00 AM


Visibility: 15 mi

Pressure: 30.05 "Hg

Humidity: 93%

Dew point: 32 °F

Location of QuispamsisLocation

Historic Weather in Quispamsis — Graph

°F

Quispamsis temperature yesterday

Maximum temperature yesterday: 66 °F (at 4:00 PM)
Minimum temperature yesterday: 43 °F (at 6:00 AM)
Average temperature yesterday: 55 °F

Past Weeks' High & Low Weather Summary

 TemperatureHumidityPressure
High68 °F (May 5, 4:00 PM)100% (Apr 22, 4:00 AM)30.20 "Hg (Apr 22, 4:00 AM)
Low21 °F (May 2, 6:00 AM)18% (May 5, 7:00 PM)29.36 "Hg (Apr 28, 7:00 PM)
Average41 °F80%29.80 "Hg
* Reported Apr 22 4:00 AM — May 7 4:00 AM, Quispamsis, Weather by CustomWeather, © 2015

Note: Actual official high and low records may vary slightly from our data, if they occured in-between our weather recording intervals... More about our weather records

Advertising

Quispamsis weather history for previous 24 hours

 ConditionsComfort  
Time TempWeatherWind HumidityBarometerVisibility
4:00 AM
Thu, May 7
32 °FClear.2 mph93%30.06 "Hg15 mi
3:00 AM37 °FPassing clouds.No wind87%30.06 "Hg15 mi
2:00 AM46 °FPassing clouds.No wind66%30.06 "Hg15 mi
1:00 AM52 °FPassing clouds.7 mph50%30.06 "Hg15 mi
12:00 AM54 °FPassing clouds.6 mph47%30.06 "Hg15 mi
11:00 PM
Wed, May 6
57 °FPassing clouds.9 mph41%30.05 "Hg15 mi
10:00 PM57 °FPassing clouds.5 mph41%30.05 "Hg15 mi
9:00 PM59 °FScattered clouds.12 mph39%30.03 "Hg15 mi
8:00 PM63 °FScattered clouds.23 mph32%30.01 "Hg15 mi
7:00 PM52 °FPartly sunny.13 mph50%30.02 "Hg15 mi
6:00 PM64 °FPartly sunny.14 mph26%30.02 "Hg15 mi
5:00 PM66 °FPassing clouds.14 mph22%30.04 "Hg15 mi
4:00 PM66 °FScattered clouds.20 mph22%30.07 "Hg15 mi
3:00 PM64 °FScattered clouds.21 mph22%30.09 "Hg15 mi
2:00 PM63 °FScattered clouds.17 mph22%30.11 "Hg15 mi
1:00 PM63 °FPassing clouds.21 mph22%30.14 "Hg15 mi
12:00 PM59 °FPassing clouds.21 mph23%30.15 "Hg15 mi
11:00 AM57 °FPassing clouds.15 mph27%30.17 "Hg15 mi
10:00 AM55 °FPassing clouds.12 mph31%30.18 "Hg15 mi
9:00 AM52 °FSunny.9 mph44%30.20 "Hg15 mi
8:00 AM48 °FSunny.8 mph54%30.20 "Hg15 mi
7:00 AM45 °FClear.9 mph66%30.19 "Hg15 mi
6:00 AM43 °FClear.6 mph71%30.18 "Hg15 mi
5:00 AM45 °FPassing clouds.5 mph66%30.18 "Hg15 mi
Weather by CustomWeather, © 2015

See weather overviewHow to use our weather pages